| time (UTC) | temp F | wind direction | speed knots | gust knots | rain 1hr in | rain 24hr in | rain mn in | humidity % | barometer mb |
| 20260506124528 | 57 | 351 | 1.7 | 6.1 | 0.00 | 0.43 | 0.07 | 83 | 1008.9 |
| 20260506124028 | 56 | 331 | 1.7 | 7.0 | 0.00 | 0.43 | 0.07 | 83 | 1008.8 |
| 20260506123533 | 56 | 333 | 1.7 | 7.0 | 0.00 | 0.43 | 0.07 | 84 | 1008.8 |
| 20260506123033 | 56 | 345 | 2.6 | 5.2 | 0.00 | 0.43 | 0.07 | 85 | 1008.8 |
| 20260506122540 | 55 | 5 | 0.9 | 4.3 | 0.00 | 0.43 | 0.07 | 85 | 1008.8 |
| 20260506121530 | 55 | 334 | 1.7 | 5.2 | 0.00 | 0.43 | 0.07 | 85 | 1008.7 |
| 20260506121029 | 54 | 341 | 2.6 | 7.8 | 0.00 | 0.43 | 0.07 | 83 | 1008.7 |
| 20260506120532 | 54 | 323 | 2.6 | 7.8 | 0.00 | 0.43 | 0.07 | 83 | 1008.7 |
| 20260506120027 | 54 | 323 | 1.7 | 4.3 | 0.00 | 0.43 | 0.07 | 84 | 1008.8 |
| 20260506115531 | 54 | 349 | 1.7 | 7.8 | 0.00 | 0.43 | 0.07 | 84 | 1008.8 |
| 20260506115056 | 54 | 336 | 2.6 | 7.8 | 0.00 | 0.43 | 0.07 | 83 | 1008.8 |
| 20260506114528 | 54 | 355 | 2.6 | 7.0 | 0.00 | 0.43 | 0.07 | 85 | 1008.8 |
| 20260506114102 | 54 | 348 | 2.6 | 7.0 | 0.00 | 0.43 | 0.07 | 85 | 1008.8 |
| 20260506113552 | 54 | 333 | 2.6 | 7.0 | 0.00 | 0.43 | 0.07 | 85 | 1008.8 |
| 20260506113033 | 53 | 355 | 1.7 | 5.2 | 0.00 | 0.43 | 0.07 | 87 | 1008.8 |
| 20260506112541 | 53 | 339 | 1.7 | 5.2 | 0.00 | 0.43 | 0.07 | 88 | 1008.7 |
| 20260506112041 | 53 | 16 | 1.7 | 4.3 | 0.00 | 0.43 | 0.07 | 88 | 1008.8 |
| 20260506111530 | 53 | 343 | 0.9 | 4.3 | 0.00 | 0.43 | 0.07 | 89 | 1008.8 |
| 20260506111044 | 52 | 344 | 1.7 | 4.3 | 0.00 | 0.43 | 0.07 | 88 | 1008.7 |
| 20260506110542 | 52 | 355 | 1.7 | 7.0 | 0.00 | 0.43 | 0.07 | 88 | 1008.7 |
| 20260506110055 | 52 | 355 | 2.6 | 7.0 | 0.00 | 0.75 | 0.07 | 87 | 1008.7 |
| 20260506105532 | 52 | 347 | 1.7 | 5.2 | 0.00 | 0.75 | 0.07 | 88 | 1008.7 |
| 20260506105032 | 52 | 335 | 2.6 | 7.0 | 0.00 | 0.75 | 0.07 | 87 | 1008.7 |
| 20260506104540 | 52 | 16 | 2.6 | 7.8 | 0.00 | 0.75 | 0.07 | 87 | 1008.7 |
| 20260506104038 | 52 | 19 | 2.6 | 8.7 | 0.00 | 0.75 | 0.07 | 87 | 1008.7 |
| 20260506103531 | 52 | 5 | 3.5 | 8.7 | 0.00 | 0.75 | 0.07 | 89 | 1008.6 |
| 20260506103029 | 52 | 347 | 3.5 | 7.8 | 0.00 | 0.75 | 0.07 | 88 | 1008.6 |
| 20260506102541 | 52 | 335 | 1.7 | 10.4 | 0.00 | 0.75 | 0.07 | 89 | 1008.6 |
| 20260506102028 | 52 | 19 | 4.3 | 10.4 | 0.00 | 0.75 | 0.07 | 89 | 1008.6 |
| 20260506101530 | 52 | 355 | 7.0 | 10.4 | 0.00 | 0.75 | 0.07 | 88 | 1008.5 |
| 20260506101055 | 52 | 338 | 4.3 | 9.6 | 0.00 | 0.75 | 0.07 | 90 | 1008.5 |
| 20260506100539 | 52 | 17 | 4.3 | 10.4 | 0.00 | 0.75 | 0.07 | 90 | 1008.4 |
| 20260506100034 | 52 | 14 | 4.3 | 12.2 | 0.00 | 0.83 | 0.07 | 89 | 1008.4 |
| 20260506095532 | 52 | 355 | 7.8 | 12.2 | 0.00 | 0.83 | 0.07 | 88 | 1008.3 |
| 20260506095032 | 52 | 19 | 7.0 | 12.2 | 0.00 | 0.83 | 0.07 | 89 | 1008.2 |
| 20260506094537 | 52 | 22 | 7.0 | 11.3 | 0.00 | 0.83 | 0.07 | 90 | 1008.2 |
| 20260506094033 | 52 | 355 | 7.0 | 11.3 | 0.00 | 0.83 | 0.07 | 89 | 1008.1 |
| 20260506093532 | 52 | 335 | 6.1 | 12.2 | 0.00 | 0.83 | 0.07 | 89 | 1008.0 |
| 20260506093031 | 52 | 13 | 7.8 | 12.2 | 0.00 | 0.83 | 0.07 | 90 | 1008.0 |
| 20260506092601 | 52 | 355 | 6.1 | 10.4 | 0.00 | 0.83 | 0.07 | 90 | 1008.0 |
| 20260506092045 | 52 | 360 | 6.1 | 13.9 | 0.00 | 0.83 | 0.07 | 91 | 1007.9 |
| 20260506091528 | 51 | 67 | 9.6 | 13.9 | 0.04 | 0.83 | 0.07 | 91 | 1007.8 |
| 20260506091027 | 51 | 355 | 7.8 | 11.3 | 0.04 | 0.83 | 0.07 | 92 | 1007.8 |
| 20260506090534 | 51 | 344 | 5.2 | 12.2 | 0.04 | 0.83 | 0.07 | 93 | 1007.8 |
| 20260506090035 | 51 | 355 | 8.7 | 14.8 | 0.04 | 1.22 | 0.07 | 92 | 1007.7 |
| 20260506085546 | 51 | 9 | 7.8 | 14.8 | 0.04 | 1.22 | 0.07 | 93 | 1007.7 |
| 20260506085045 | 51 | 5 | 7.0 | 13.0 | 0.04 | 1.22 | 0.07 | 93 | 1007.6 |
| 20260506084534 | 51 | 13 | 8.7 | 13.0 | 0.04 | 1.22 | 0.07 | 93 | 1007.5 |
| 20260506084034 | 51 | 346 | 8.7 | 13.0 | 0.04 | 1.22 | 0.07 | 93 | 1007.6 |
| 20260506083540 | 51 | 348 | 7.8 | 12.2 | 0.04 | 1.22 | 0.07 | 93 | 1007.5 |
| 20260506083038 | 51 | 340 | 6.1 | 12.2 | 0.04 | 1.22 | 0.07 | 94 | 1007.5 |
| 20260506082530 | 51 | 10 | 7.8 | 13.0 | 0.04 | 1.22 | 0.07 | 94 | 1007.4 |
| 20260506082027 | 51 | 5 | 7.8 | 12.2 | 0.04 | 1.22 | 0.07 | 93 | 1007.5 |
| 20260506081541 | 51 | 342 | 6.1 | 11.3 | 0.00 | 1.18 | 0.06 | 94 | 1007.4 |
| 20260506081043 | 51 | 355 | 5.2 | 10.4 | 0.00 | 1.18 | 0.06 | 95 | 1007.3 |
| 20260506080528 | 51 | 22 | 6.1 | 10.4 | 0.00 | 1.18 | 0.06 | 95 | 1007.2 |
| 20260506073042 | 51 | 355 | 6.1 | 11.3 | 0.04 | 1.85 | 0.06 | 96 | 1007.0 |
| 20260506072542 | 51 | 5 | 6.1 | 11.3 | 0.08 | 1.85 | 0.06 | 96 | 1006.8 |
| 20260506072027 | 51 | 13 | 7.0 | 11.3 | 0.08 | 1.85 | 0.06 | 96 | 1006.8 |
| 20260506071536 | 51 | 17 | 7.0 | 9.6 | 0.08 | 1.85 | 0.06 | 96 | 1006.8 |
| 20260506071045 | 51 | 350 | 4.3 | 8.7 | 0.08 | 1.85 | 0.06 | 96 | 1006.8 |
| 20260506070531 | 51 | 355 | 3.5 | 9.6 | 0.08 | 1.85 | 0.06 | 97 | 1006.7 |
| 20260506062042 | 51 | 360 | 4.3 | 8.7 | 0.04 | 2.64 | 0.05 | 96 | 1006.3 |
| 20260506061538 | 51 | 23 | 2.6 | 8.7 | 0.04 | 2.64 | 0.05 | 96 | 1006.3 |
| 20260506061033 | 51 | 344 | 4.3 | 8.7 | 0.04 | 2.64 | 0.05 | 96 | 1006.3 |
| 20260506060526 | 51 | 351 | 3.5 | 7.0 | 0.04 | 2.64 | 0.05 | 96 | 1006.2 |
| 20260506060105 | 51 | 16 | 3.5 | 7.8 | 0.04 | 2.83 | 0.05 | 96 | 1006.1 |
| 20260506051050 | 51 | 355 | 3.5 | 7.8 | 0.00 | 2.80 | 0.04 | 96 | 1005.7 |
| 20260506050535 | 51 | 5 | 2.6 | 7.8 | 0.00 | 2.80 | 0.04 | 96 | 1005.6 |
| 20260506045034 | 51 | 355 | 2.6 | 9.6 | 0.00 | 2.80 | 0.04 | 96 | 1005.5 |
| 20260506044540 | 51 | 5 | 4.3 | 7.8 | 0.00 | 2.80 | 0.04 | 96 | 1005.5 |
| 20260506044046 | 51 | 9 | 4.3 | 10.4 | 0.04 | 2.80 | 0.04 | 96 | 1005.5 |
| 20260506043537 | 51 | 355 | 6.1 | 10.4 | 0.04 | 2.80 | 0.04 | 96 | 1005.4 |
| 20260506043033 | 51 | 360 | 4.3 | 13.0 | 0.04 | 2.80 | 0.04 | 96 | 1005.4 |
| 20260506042538 | 51 | 348 | 6.1 | 13.0 | 0.04 | 2.80 | 0.04 | 96 | 1005.3 |
| 20260506042039 | 51 | 348 | 3.5 | 10.4 | 0.04 | 2.80 | 0.04 | 96 | 1005.3 |
| 20260506041549 | 51 | 350 | 5.2 | 11.3 | 0.04 | 2.80 | 0.04 | 96 | 1005.2 |
| 20260506041028 | 52 | 333 | 6.1 | 11.3 | 0.04 | 2.80 | 0.04 | 97 | 1005.2 |
| 20260506040556 | 52 | 328 | 7.0 | 8.7 | 0.04 | 2.80 | 0.04 | 97 | 1005.1 |
| 20260506040028 | 52 | 344 | 4.3 | 7.8 | 0.04 | 2.87 | 0.04 | 97 | 1005.1 |
| 20260506035539 | 52 | 343 | 4.3 | 7.8 | 0.04 | 2.87 | 0.04 | 97 | 1005.1 |
| 20260506035040 | 52 | 342 | 3.5 | 7.8 | 0.04 | 2.87 | 0.04 | 97 | 1005.2 |
| 20260506034544 | 52 | 346 | 2.6 | 8.7 | 0.00 | 2.83 | 0.03 | 97 | 1005.3 |
| 20260506034043 | 52 | 348 | 3.5 | 8.7 | 0.04 | 2.83 | 0.03 | 96 | 1005.3 |
| 20260506033536 | 52 | 12 | 5.2 | 9.6 | 0.04 | 2.83 | 0.03 | 97 | 1005.3 |
| 20260506033030 | 52 | 355 | 6.1 | 9.6 | 0.04 | 2.83 | 0.03 | 96 | 1005.2 |
| 20260506032539 | 52 | 9 | 4.3 | 9.6 | 0.04 | 2.83 | 0.03 | 96 | 1005.3 |
| 20260506032037 | 52 | 322 | 5.2 | 9.6 | 0.04 | 2.83 | 0.03 | 96 | 1005.3 |
| 20260506031541 | 52 | 355 | 3.5 | 7.8 | 0.08 | 2.83 | 0.03 | 96 | 1005.2 |
| 20260506031053 | 52 | 341 | 3.5 | 7.8 | 0.08 | 2.83 | 0.03 | 97 | 1005.2 |
| 20260506030534 | 52 | 315 | 3.5 | 8.7 | 0.08 | 2.83 | 0.03 | 97 | 1005.2 |
| 20260506030031 | 52 | 332 | 4.3 | 8.7 | 0.08 | 2.99 | 0.03 | 96 | 1005.2 |
| 20260506025532 | 52 | 338 | 5.2 | 12.2 | 0.08 | 2.99 | 0.03 | 96 | 1005.2 |
| 20260506025036 | 53 | 10 | 5.2 | 12.2 | 0.08 | 2.99 | 0.03 | 96 | 1005.3 |
| 20260506024540 | 53 | 340 | 3.5 | 7.8 | 0.08 | 2.99 | 0.03 | 96 | 1005.3 |
| 20260506024042 | 53 | 336 | 4.3 | 7.8 | 0.04 | 2.95 | 0.02 | 96 | 1005.3 |
| 20260506023531 | 53 | 16 | 3.5 | 7.8 | 0.04 | 2.95 | 0.02 | 96 | 1005.3 |
| 20260506023037 | 53 | 360 | 3.5 | 5.2 | 0.04 | 2.95 | 0.02 | 96 | 1005.3 |
| 20260506022541 | 53 | 345 | 2.6 | 5.2 | 0.04 | 2.95 | 0.02 | 96 | 1005.4 |
| 20260506022045 | 53 | 325 | 0.9 | 4.3 | 0.04 | 2.95 | 0.02 | 96 | 1005.4 |
| 20260506021534 | 53 | 284 | 1.7 | 6.1 | 0.00 | 2.91 | 0.02 | 97 | 1005.4 |
| 20260506021029 | 53 | 267 | 2.6 | 6.1 | 0.00 | 2.91 | 0.02 | 97 | 1005.3 |
| 20260506020542 | 53 | 264 | 0.9 | 3.5 | 0.04 | 2.91 | 0.02 | 97 | 1005.2 |
| 20260506020058 | 53 | 268 | 0.9 | 4.3 | 0.04 | 2.91 | 0.02 | 97 | 1005.2 |
| 20260506015552 | 53 | 221 | 1.7 | 4.3 | 0.04 | 2.91 | 0.02 | 96 | 1005.3 |
| 20260506015047 | 53 | 234 | 0.9 | 3.5 | 0.08 | 2.91 | 0.02 | 96 | 1005.3 |
| 20260506014535 | 53 | 223 | 1.7 | 3.5 | 0.08 | 2.91 | 0.02 | 96 | 1005.3 |
| 20260506014034 | 53 | 234 | 1.7 | 3.5 | 0.08 | 2.91 | 0.02 | 96 | 1005.4 |
| 20260506013539 | 53 | 219 | 1.7 | 4.3 | 0.08 | 2.91 | 0.02 | 96 | 1005.5 |
| 20260506013036 | 53 | 220 | 1.7 | 4.3 | 0.08 | 2.91 | 0.02 | 96 | 1005.5 |
| 20260506012541 | 53 | 233 | 0.9 | 6.1 | 0.08 | 2.91 | 0.02 | 96 | 1005.5 |
| 20260506012034 | 53 | 235 | 2.6 | 7.0 | 0.08 | 2.91 | 0.02 | 96 | 1005.5 |
| 20260506011604 | 53 | 288 | 1.7 | 7.0 | 0.08 | 2.91 | 0.02 | 96 | 1005.5 |
| 20260506011036 | 53 | 284 | 1.7 | 5.2 | 0.08 | 2.91 | 0.02 | 96 | 1005.5 |
| 20260506010537 | 53 | 247 | 1.7 | 7.0 | 0.04 | 2.87 | 0.01 | 96 | 1005.6 |
| 20260506010037 | 53 | 250 | 1.7 | 7.0 | 0.04 | 2.87 | 0.01 | 96 | 1005.7 |
| 20260506005542 | 54 | 252 | 2.6 | 4.3 | 0.04 | 2.87 | 0.01 | 96 | 1005.7 |
| 20260506005038 | 54 | 235 | 1.7 | 5.2 | 0.00 | 2.83 | 0.00 | 96 | 1005.7 |
| 20260506004558 | 54 | 219 | 2.6 | 4.3 | 0.00 | 2.83 | 0.00 | 96 | 1005.8 |
| 20260506004033 | 54 | 219 | 0.9 | 4.3 | 0.00 | 2.83 | 0.00 | 96 | 1005.8 |
| 20260506003535 | 54 | 250 | 1.7 | 5.2 | 0.00 | 2.83 | 0.00 | 96 | 1005.9 |
| 20260506003037 | 54 | 211 | 1.7 | 4.3 | 0.00 | 2.83 | 0.00 | 96 | 1006.0 |
| 20260506002541 | 54 | 209 | 1.7 | 3.5 | 0.00 | 2.83 | 0.00 | 96 | 1006.0 |
| 20260506002042 | 54 | 198 | 0.9 | 4.3 | 0.00 | 2.83 | 0.00 | 96 | 1006.1 |
| 20260506001553 | 54 | 227 | 1.7 | 4.3 | 0.00 | 2.83 | 0.00 | 96 | 1006.1 |
| 20260506001039 | 54 | 246 | 1.7 | 3.5 | 0.00 | 2.83 | 0.00 | 96 | 1006.0 |
| 20260506000546 | 54 | 225 | 1.7 | 2.6 | 0.00 | 2.83 | 0.00 | 96 | 1006.0 |
| 20260506000045 | 54 | 242 | 0.9 | 2.6 | 0.00 | 2.83 | 0.57 | 96 | 1006.0 |
| 20260505235607 | 54 | 245 | 0.9 | 2.6 | 0.00 | 2.83 | 0.57 | 96 | 1006.1 |
| 20260505235050 | 54 | 236 | 0.9 | 3.5 | 0.00 | 2.83 | 0.57 | 96 | 1006.1 |
| 20260505234534 | 54 | 209 | 0.9 | 3.5 | 0.00 | 2.83 | 0.57 | 96 | 1006.1 |
| 20260505234033 | 54 | 209 | 0.9 | 3.5 | 0.00 | 2.83 | 0.57 | 96 | 1006.2 |
| 20260505233539 | 54 | 276 | 0.9 | 3.5 | 0.00 | 2.83 | 0.57 | 96 | 1006.1 |
| 20260505233043 | 54 | 238 | 1.7 | 3.5 | 0.00 | 2.83 | 0.57 | 96 | 1006.1 |
| 20260505232529 | 54 | 254 | 0.9 | 3.5 | 0.00 | 2.83 | 0.57 | 96 | 1006.2 |
| 20260505232029 | 54 | 281 | 1.7 | 4.3 | 0.00 | 2.83 | 0.57 | 96 | 1006.1 |
| 20260505231540 | 54 | 304 | 1.7 | 4.3 | 0.00 | 2.83 | 0.57 | 96 | 1006.1 |
| 20260505231043 | 54 | 279 | 1.7 | 3.5 | 0.00 | 2.83 | 0.57 | 96 | 1006.1 |
| 20260505230532 | 54 | 292 | 0.9 | 3.5 | 0.00 | 2.83 | 0.57 | 96 | 1006.2 |
| 20260505230043 | 54 | 282 | 0.9 | 4.3 | 0.00 | 2.83 | 0.57 | 96 | 1006.2 |
| 20260505225535 | 54 | 292 | 0.9 | 3.5 | 0.00 | 2.83 | 0.57 | 96 | 1006.3 |
| 20260505225030 | 54 | 284 | 1.7 | 3.5 | 0.00 | 2.83 | 0.57 | 96 | 1006.4 |
| 20260505224540 | 54 | 276 | 1.7 | 5.2 | 0.00 | 2.83 | 0.57 | 96 | 1006.4 |
| 20260505224105 | 54 | 283 | 0.9 | 5.2 | 0.00 | 2.83 | 0.57 | 96 | 1006.4 |
| 20260505223529 | 54 | 246 | 1.7 | 4.3 | 0.00 | 2.83 | 0.57 | 96 | 1006.4 |
| 20260505223051 | 54 | 234 | 1.7 | 4.3 | 0.00 | 2.83 | 0.57 | 96 | 1006.4 |
| 20260505222602 | 54 | 237 | 0.9 | 1.7 | 0.00 | 2.83 | 0.57 | 96 | 1006.4 |
| 20260505222036 | 54 | 286 | 0.9 | 1.7 | 0.00 | 2.83 | 0.57 | 96 | 1006.5 |
| 20260505221545 | 54 | 280 | 0.9 | 1.7 | 0.00 | 2.83 | 0.57 | 96 | 1006.4 |
| 20260505221046 | 54 | 275 | 0.0 | 3.5 | 0.00 | 2.83 | 0.57 | 96 | 1006.4 |
| 20260505220534 | 54 | 281 | 0.9 | 3.5 | 0.00 | 2.83 | 0.57 | 96 | 1006.5 |
| 20260505220034 | 54 | 276 | 0.9 | 3.5 | 0.00 | 2.83 | 0.57 | 96 | 1006.4 |
| 20260505215539 | 54 | 315 | 0.9 | 5.2 | 0.00 | 2.83 | 0.57 | 96 | 1006.5 |
| 20260505215039 | 54 | 293 | 0.9 | 7.0 | 0.00 | 2.83 | 0.57 | 96 | 1006.4 |
| 20260505214542 | 54 | 311 | 2.6 | 7.0 | 0.00 | 2.83 | 0.57 | 96 | 1006.4 |
| 20260505214041 | 54 | 299 | 3.5 | 5.2 | 0.00 | 2.83 | 0.57 | 96 | 1006.4 |
| 20260505213541 | 54 | 302 | 2.6 | 6.1 | 0.00 | 2.83 | 0.57 | 96 | 1006.3 |
| 20260505213028 | 54 | 305 | 2.6 | 5.2 | 0.00 | 2.83 | 0.57 | 96 | 1006.4 |
| 20260505212532 | 54 | 288 | 1.7 | 4.3 | 0.00 | 2.83 | 0.57 | 96 | 1006.4 |
| 20260505212105 | 54 | 283 | 0.9 | 3.5 | 0.00 | 2.83 | 0.57 | 96 | 1006.4 |
| 20260505211551 | 54 | 303 | 0.9 | 6.1 | 0.00 | 2.83 | 0.57 | 96 | 1006.4 |
| 20260505211035 | 54 | 256 | 0.9 | 6.1 | 0.00 | 2.83 | 0.57 | 96 | 1006.4 |
| 20260505210539 | 54 | 273 | 0.9 | 3.5 | 0.00 | 2.83 | 0.57 | 96 | 1006.5 |
| 20260505210047 | 54 | 304 | 0.9 | 4.3 | 0.00 | 2.83 | 0.57 | 96 | 1006.5 |
| 20260505205533 | 54 | 286 | 0.9 | 4.3 | 0.04 | 2.83 | 0.57 | 96 | 1006.4 |
| 20260505205031 | 54 | 258 | 0.9 | 6.1 | 0.04 | 2.83 | 0.57 | 96 | 1006.4 |
| 20260505204542 | 54 | 255 | 1.7 | 6.1 | 0.04 | 2.83 | 0.57 | 96 | 1006.4 |
| 20260505204042 | 54 | 302 | 0.9 | 7.0 | 0.04 | 2.83 | 0.57 | 96 | 1006.5 |
| 20260505203529 | 54 | 303 | 2.6 | 7.0 | 0.04 | 2.83 | 0.57 | 96 | 1006.4 |
| 20260505203031 | 54 | 309 | 1.7 | 6.1 | 0.04 | 2.83 | 0.57 | 96 | 1006.4 |
| 20260505202542 | 54 | 315 | 1.7 | 7.0 | 0.04 | 2.83 | 0.57 | 96 | 1006.4 |
| 20260505202036 | 54 | 325 | 2.6 | 7.8 | 0.04 | 2.83 | 0.57 | 96 | 1006.3 |
| 20260505201538 | 55 | 270 | 3.5 | 7.8 | 0.04 | 2.83 | 0.57 | 96 | 1006.3 |
| 20260505201105 | 55 | 312 | 4.3 | 9.6 | 0.04 | 2.83 | 0.57 | 96 | 1006.2 |
| 20260505200533 | 55 | 330 | 5.2 | 9.6 | 0.04 | 2.83 | 0.57 | 95 | 1006.2 |
| 20260505200044 | 55 | 321 | 4.3 | 9.6 | 0.04 | 2.83 | 0.57 | 95 | 1006.1 |
| 20260505195603 | 55 | 305 | 5.2 | 9.6 | 0.00 | 2.80 | 0.56 | 95 | 1006.0 |
| 20260505195038 | 55 | 321 | 4.3 | 8.7 | 0.00 | 2.80 | 0.56 | 95 | 1006.0 |
| 20260505194546 | 55 | 333 | 5.2 | 9.6 | 0.00 | 2.80 | 0.56 | 95 | 1005.9 |
| 20260505194035 | 55 | 300 | 4.3 | 7.8 | 0.00 | 2.80 | 0.56 | 95 | 1005.8 |
| 20260505193537 | 55 | 295 | 3.5 | 9.6 | 0.00 | 2.80 | 0.56 | 95 | 1005.8 |
| 20260505193037 | 55 | 278 | 4.3 | 9.6 | 0.00 | 2.80 | 0.56 | 95 | 1005.7 |
| 20260505192547 | 55 | 290 | 1.7 | 8.7 | 0.00 | 2.80 | 0.56 | 95 | 1005.6 |
| 20260505192031 | 55 | 344 | 5.2 | 8.7 | 0.00 | 2.80 | 0.56 | 95 | 1005.6 |
| 20260505191532 | 55 | 329 | 3.5 | 10.4 | 0.00 | 2.80 | 0.56 | 95 | 1005.5 |
| 20260505191032 | 56 | 303 | 6.1 | 13.9 | 0.00 | 2.80 | 0.56 | 95 | 1005.5 |
| 20260505190556 | 56 | 317 | 7.0 | 13.9 | 0.00 | 2.80 | 0.56 | 95 | 1005.4 |
| 20260505190035 | 56 | 298 | 8.7 | 12.2 | 0.00 | 2.80 | 0.56 | 95 | 1005.3 |
| 20260505185538 | 56 | 318 | 5.2 | 10.4 | 0.00 | 2.80 | 0.56 | 95 | 1005.1 |
| 20260505185044 | 55 | 333 | 5.2 | 10.4 | 0.00 | 2.80 | 0.56 | 95 | 1005.0 |
| 20260505184535 | 56 | 273 | 4.3 | 10.4 | 0.00 | 2.80 | 0.56 | 95 | 1004.9 |
| 20260505184035 | 56 | 273 | 2.6 | 10.4 | 0.00 | 2.80 | 0.56 | 95 | 1004.9 |
| 20260505183532 | 56 | 275 | 3.5 | 11.3 | 0.00 | 2.80 | 0.56 | 95 | 1004.8 |
| 20260505183031 | 56 | 302 | 4.3 | 11.3 | 0.00 | 2.80 | 0.56 | 94 | 1004.7 |
| 20260505182541 | 56 | 275 | 4.3 | 9.6 | 0.00 | 2.80 | 0.56 | 94 | 1004.6 |
| 20260505182037 | 56 | 225 | 5.2 | 11.3 | 0.00 | 2.80 | 0.56 | 94 | 1004.6 |
| 20260505181541 | 56 | 257 | 5.2 | 11.3 | 0.00 | 2.80 | 0.56 | 93 | 1004.5 |
| 20260505181041 | 56 | 294 | 5.2 | 11.3 | 0.00 | 2.80 | 0.56 | 93 | 1004.6 |
| 20260505180606 | 56 | 227 | 2.6 | 9.6 | 0.04 | 2.80 | 0.56 | 93 | 1004.5 |
| 20260505180032 | 56 | 231 | 2.6 | 9.6 | 0.04 | 2.80 | 0.56 | 93 | 1004.5 |
| 20260505175542 | 56 | 272 | 3.5 | 13.9 | 0.04 | 2.80 | 0.56 | 93 | 1004.6 |
| 20260505175025 | 56 | 215 | 5.2 | 13.9 | 0.04 | 2.80 | 0.56 | 93 | 1004.5 |
| 20260505174602 | 56 | 188 | 4.3 | 12.2 | 0.04 | 2.80 | 0.56 | 93 | 1004.6 |
| 20260505174040 | 56 | 214 | 4.3 | 12.2 | 0.04 | 2.80 | 0.56 | 94 | 1004.4 |
| 20260505173545 | 56 | 252 | 4.3 | 15.6 | 0.04 | 2.80 | 0.56 | 93 | 1004.4 |
| 20260505173047 | 57 | 234 | 5.2 | 15.6 | 0.04 | 2.80 | 0.56 | 93 | 1004.5 |
| 20260505172529 | 56 | 236 | 3.5 | 9.6 | 0.04 | 2.80 | 0.56 | 93 | 1004.3 |
| 20260505172028 | 57 | 232 | 5.2 | 12.2 | 0.04 | 2.80 | 0.56 | 93 | 1004.4 |
| 20260505171531 | 57 | 236 | 6.1 | 12.2 | 0.04 | 2.80 | 0.56 | 93 | 1004.4 |
| 20260505171032 | 57 | 263 | 3.5 | 12.2 | 0.04 | 2.80 | 0.56 | 92 | 1004.4 |
| 20260505170540 | 57 | 291 | 3.5 | 12.2 | 0.00 | 2.76 | 0.55 | 91 | 1004.4 |
| 20260505170044 | 58 | 161 | 2.6 | 16.5 | 0.00 | 2.76 | 0.55 | 90 | 1004.6 |
| 20260505165613 | 59 | 212 | 5.2 | 16.5 | 0.00 | 2.76 | 0.55 | 89 | 1004.4 |
| 20260505165044 | 60 | 242 | 4.3 | 10.4 | 0.00 | 2.76 | 0.55 | 86 | 1004.4 |
| 20260505164545 | 60 | 235 | 6.1 | 11.3 | 0.00 | 2.76 | 0.55 | 85 | 1004.1 |
| 20260505164046 | 60 | 184 | 3.5 | 11.3 | 0.00 | 2.76 | 0.55 | 84 | 1004.4 |
| 20260505163539 | 61 | 255 | 4.3 | 9.6 | 0.00 | 2.76 | 0.55 | 82 | 1004.4 |
| 20260505163036 | 61 | 221 | 2.6 | 8.7 | 0.00 | 2.76 | 0.55 | 84 | 1004.5 |
| 20260505162547 | 62 | 195 | 3.5 | 8.7 | 0.00 | 2.76 | 0.55 | 83 | 1004.5 |
| 20260505162107 | 62 | 219 | 3.5 | 7.0 | 0.00 | 2.76 | 0.55 | 83 | 1004.6 |
| 20260505161531 | 62 | 238 | 1.7 | 7.0 | 0.00 | 2.76 | 0.55 | 85 | 1004.6 |
| 20260505161029 | 61 | 184 | 2.6 | 7.0 | 0.00 | 2.76 | 0.55 | 85 | 1004.7 |
| 20260505160600 | 61 | 196 | 0.9 | 6.1 | 0.00 | 2.76 | 0.55 | 83 | 1004.6 |
| 20260505153032 | 62 | 234 | 5.2 | 9.6 | 0.00 | 2.76 | 0.55 | 80 | 1004.7 |
| 20260505152541 | 62 | 221 | 2.6 | 7.0 | 0.00 | 2.76 | 0.55 | 81 | 1004.7 |
| 20260505152103 | 62 | 278 | 2.6 | 7.0 | 0.00 | 2.76 | 0.55 | 81 | 1004.8 |
| 20260505151534 | 63 | 236 | 1.7 | 7.0 | 0.00 | 2.76 | 0.55 | 80 | 1004.8 |
| 20260505151034 | 63 | 227 | 3.5 | 8.7 | 0.00 | 2.76 | 0.55 | 80 | 1004.7 |
| 20260505150539 | 63 | 323 | 2.6 | 7.8 | 0.00 | 2.76 | 0.55 | 81 | 1004.7 |
| 20260505140525 | 62 | 224 | 2.6 | 8.7 | 0.00 | 2.76 | 0.55 | 86 | 1004.9 |
| 20260505125034 | 59 | 233 | 3.5 | 7.8 | 0.00 | 2.76 | 0.55 | 92 | 1005.0 |